Location: Newark
(42.5998°N, 13.2232°E)
Time: 04:43:37
(UTC+00:00)

CUBESAT XI-V - Visible Passes

Search period start: 02 April 2020 00:00
Search period end: 12 April 2020 00:00
Orbit: 669 x 693 km, 98.0° (Epoch: 01 April)

Date Brightness Start Highest point End Pass type
(mag) Time Alt. Az. Time Alt. Az. Time Alt. Az.
02 Apr ? 01:39:16 16° NNW 01:39:16 16° NNW 01:40:10 10° NNW visible
03 Apr ? 00:37:14 18° NNE 00:37:14 18° NNE 00:38:36 10° N visible
03 Apr ? 02:15:40 11° NW 02:15:40 11° NW 02:15:47 10° NW visible
04 Apr ? 01:13:38 20° N 01:13:38 20° N 01:15:07 10° N visible
05 Apr ? 00:11:36 15° NNE 00:11:36 15° NNE 00:12:53 10° NNE visible
05 Apr ? 01:50:01 17° NNW 01:50:01 17° NNW 01:51:08 10° NNW visible
06 Apr ? 00:48:00 22° NNE 00:48:00 22° NNE 00:49:50 10° N visible
06 Apr ? 02:26:25 10° NW 02:26:25 10° NW 02:26:30 10° NW visible
06 Apr ? 23:45:58 10° NE 23:45:58 10° NE 23:46:14 10° NE visible
07 Apr ? 01:24:24 23° NNW 01:24:24 23° NNW 01:26:11 10° NNW visible
08 Apr ? 00:22:21 19° NE 00:22:21 19° NE 00:24:17 10° NNE visible
08 Apr ? 02:00:47 17° NW 02:00:47 17° NW 02:02:02 10° NNW visible
09 Apr ? 00:58:45 27° N 00:58:45 27° N 01:01:00 10° N visible
09 Apr ? 23:56:44 13° NE 23:56:44 13° NE 23:58:13 10° NNE visible
10 Apr ? 01:35:09 26° NNW 01:35:09 26° NNW 01:37:12 10° NNW visible
11 Apr ? 00:33:08 24° NE 00:33:08 24° NE 00:35:34 10° N visible
11 Apr ? 02:11:33 17° NW 02:11:33 17° NW 02:12:52 10° NW visible
